Flag for U.S.A. Weather past 2 weeks in Chula Vista, California, U.S.A.

Now
49 °F

Clear.


Feels Like: 47 °F
Forecast: 49 / 79 °F
Wind: 5 mph from East

Location: Brown Field Municipal Airport

Current Time: Mar 6, 2015 at 1:00:52 AM

Latest Report: Mar 5, 2015 at 11:53 PM


Visibility: 10 mi

Pressure: 30.14 "Hg

Humidity: 50%

Dew point: 31 °F

Location of Chula VistaLocation

Historic Weather in Chula Vista — Graph

°F

Chula Vista temperature yesterday

Maximum temperature yesterday: 76 °F (at 12:53 PM)
Minimum temperature yesterday: 43 °F (at 2:53 AM)
Average temperature yesterday: 59 °F

Past Weeks' High & Low Weather Summary

 TemperatureHumidityPressure
High76 °F (Mar 5, 12:53 PM)100% (Feb 19, 2:53 AM)30.24 "Hg (Feb 19, 2:53 AM)
Low43 °F (Mar 5, 2:53 AM)17% (Mar 5, 1:53 PM)29.78 "Hg (Feb 27, 3:53 PM)
Average57 °F72%29.99 "Hg
* Reported Feb 18 11:53 PM — Mar 5 11:53 PM, Chula Vista, Weather by CustomWeather, © 2015

Note: Actual official high and low records may vary slightly from our data, if they occured in-between our weather recording intervals... More about our weather records

Advertising

Chula Vista weather history for previous 24 hours

 ConditionsComfort  
Time TempWeatherWind HumidityBarometerVisibility
11:53 PM
Thu, Mar 5
49 °FClear.5 mph50%30.14 "Hg10 mi
10:53 PM54 °FClear.5 mph49%30.14 "Hg10 mi
9:53 PM58 °FClear.7 mph46%30.14 "Hg10 mi
8:53 PM58 °FClear.No wind44%30.15 "Hg10 mi
7:53 PM58 °FClear.3 mph44%30.15 "Hg10 mi
6:53 PM55 °FClear.5 mph51%30.15 "Hg10 mi
5:53 PM67 °FClear.5 mph25%30.13 "Hg10 mi
4:53 PM72 °FSunny.3 mph25%30.13 "Hg10 mi
3:53 PM73 °FSunny.6 mph25%30.13 "Hg10 mi
2:53 PM73 °FSunny.9 mph28%30.15 "Hg10 mi
1:53 PM75 °FSunny.No wind17%30.16 "Hg10 mi
12:53 PM76 °FSunny.6 mph18%30.18 "Hg10 mi
11:53 AM74 °FSunny.N/A18%30.20 "Hg10 mi
10:53 AM71 °FSunny.No wind19%30.23 "Hg10 mi
9:53 AM69 °FSunny.5 mph21%30.24 "Hg10 mi
8:53 AM62 °FSunny.No wind38%30.24 "Hg10 mi
7:53 AM55 °FSunny.3 mph49%30.23 "Hg10 mi
6:53 AM49 °FSunny.No wind59%30.21 "Hg10 mi
5:53 AM45 °FClear.6 mph71%30.19 "Hg10 mi
4:53 AM45 °FClear.9 mph74%30.17 "Hg9 mi
3:53 AM46 °FClear.6 mph68%30.15 "Hg10 mi
2:53 AM43 °FClear.7 mph79%30.15 "Hg10 mi
1:53 AM44 °FClear.6 mph73%30.16 "Hg10 mi
Weather by CustomWeather, © 2015

See weather overviewHow to use our weather pages